Regional Weather Roundup
Issued by NWS Northern Indiana

Home | Current Version | Previous Version | Text Only | Print | Product List | Glossary Off
Versions: 1 2 3 4 5 6 7 8 9 10 11 12 13 14 15 16 17 18 19 20 21 22 23 24 25 26 27 28 29 30 31 32 33 34 35 36 37 38 39 40 41 42 43 44 45 46 47 48 49 50

000
ASUS43 KIWX 200510
RWRIWX

KIWX WEATHER ROUNDUP
NATIONAL WEATHER SERVICE NORTHERN INDIANA
1200 AM EST TUE FEB 20 2018

NOTE: "FAIR" INDICATES FEW OR NO CLOUDS BELOW 12,000 FEET WITH NO
SIGNIFICANT WEATHER AND/OR OBSTRUCTIONS TO VISIBILITY.

* THESE STATIONS ARE NOT UNDER NWS QUALITY CONTROL. THEY ALSO MAY NOT
  REPORT WEATHER SUCH AS PRECIPITATION OR FOG.

INZ001>027-200600-
NORTHERN INDIANA

CITY           SKY/WX    TMP DP  RH WIND       PRES   REMARKS
GARY*          RAIN      62  60  94 S6G18     29.86F
VALPARAISO     CLOUDY    61  58  90 S10       29.87F
MICHIGAN CITY* HVY RAIN  57  57 100 S8        29.89F
LAPORTE*       RAIN      59  57  94 S6        29.89F
SOUTH BEND     RAIN      58  56  93 SW13      29.92S FOG
GOSHEN         LGT RAIN  55  54  96 N7        29.92F FOG
MONTICELLO*    CLOUDY    62  55  77 S15G23    29.89F
LOGANSPORT*    CLOUDY    59  54  82 S20       29.92F
ROCHESTER*     CLOUDY    63  55  77 S13G18    29.91S
WARSAW*        CLOUDY    59  55  88 S6        29.92S
AUBURN*        CLOUDY    59  55  88 S6        29.96S
FORT WAYNE     CLOUDY    60  55  83 S16       29.95F
HUNTINGTON*    CLOUDY    57  56  95 S9        29.94F
PERU/GRISSOM   CLOUDY    61  61 100 S16G23    29.92F
MARION*        FAIR      58  53  82 S14       29.97F

$$
INZ028>050-200600-
CENTRAL INDIANA

CITY           SKY/WX    TMP DP  RH WIND       PRES   REMARKS
LAFAYETTE      CLOUDY    62  56  80 S15G25    29.90F
KOKOMO*        CLOUDY    60  55  83 S15       29.95F
MUNCIE*        FAIR      64  54  69 S16G24    29.98F
INDIANAPOLIS   MOCLDY    64  55  72 S17       29.99S

$$
MIZ043>046-050>051-056>058-064>065-071>073-077>080-200600-
SOUTHWEST LOWER MICHIGAN

CITY           SKY/WX    TMP DP  RH WIND       PRES   REMARKS
BATTLE CREEK   LGT RAIN  55  54  96 S16       29.90F
BENTON HARBOR  RAIN      59  56  89 S13G21    29.88R FOG
COLDWATER*     RAIN      57  57 100 S9        29.94S
HILLSDALE*     HVY RAIN  55  52  88 S6        29.96R
HOLLAND        LGT RAIN  61  57  87 SW28G37   29.84S
GRAND RAPIDS   LGT RAIN  57  54  89 SW15      29.86R
KALAMAZOO      RAIN      56  53  90 S15       29.90F FOG
STURGIS*       RAIN      57  56  96 SW10      29.94S
THREE RIVERS*  RAIN      54  54 100 S10       29.92S

$$
OHZ001>008-015>018-024>025-200600-
NORTHWEST OHIO

CITY           SKY/WX    TMP DP  RH WIND       PRES   REMARKS
WAUSEON*       MOCLDY    55  55 100 S8        29.96S
DEFIANCE       CLOUDY    59  56  89 S10       29.96S
FINDLAY        FAIR      62  53  72 S20       29.99F
TOLEDO EXPRESS FAIR      57  57 100 S3        29.96S
TOLEDO METCALF FAIR      57  55  93 S10       29.98S
LIMA           FAIR      62  55  77 S15       30.01S

$$
AND FOR LAKE MICHIGAN COASTAL AND OPEN LAKE BUOY OBSERVATIONS

STATION/POSITION TEMP    WIND        PRES    VSBY  WAVE
                 AIR SEA DIR/SP/G                  HT/PER
                 (F)     (DEG/KT/KT) (MB)    (MI)  (FT/S)
CALUMET HARBOR    59     170/ 10/ 16 1009.7F
MICHIGAN CITY     59     180/ 17/ 20   N/A
BURNS HARBOR      58     190/ 14/ 19 1011.9S
SAINT JOSEPH      59     200/ 13/ 22 1011.5

$$
&&




USA.gov is the U.S. government's official web portal to all federal, state and local government web resources and services.